sat.trackr.live / text

‹ back to catalog

GUOWANG TEST OBJECT C

NORAD 69322 · 2026-120C

PAYLOAD ACTIVE UNKNOWN

§ Identity

Operator
Country
PRC
Launch date
2026-05-30
Launch site
XICLF
Launch vehicle
Mass (kg)
RCS (m²)

External: N2YO · Heavens-Above · Gunter

§ Orbital elements

Epoch: 2026-09-20T03:35:13.663680Z

Period
93.65 min
Inclination
54.9976°
Eccentricity
0.0009321
Mean motion
15.37588060 rev/d
Perigee alt
446.9 km
Apogee alt
459.6 km
Semi-major
6,831.4 km
B*
2.4888e-4
RAAN
320.6592°
Arg perigee
187.7618°
Mean anomaly
172.3267°
Rev number
1,730

§ Raw data

GUOWANG TEST OBJECT C1 69322U 26120C   26263.14946370  .00008939  00000+0  24888-3 0  99972 69322  54.9976 320.6592 0009321 187.7618 172.3267 15.37588060 17306

JSON: /api/v1/satellites/69322 · /tle

For live sub-satellite position, see the globe view (requires WebGL).

§ Visibility from observer

Set your observer location to see the next 7 days of passes ≥ 10°. The values pass through the URL so the page stays shareable.

No JS? Fill the form by hand. The geolocation button needs JavaScript.